This is the latest recevied weather packets stored in our database for station/object N3DXC. If no packets are shown the sender has not sent any weather packets the latest 10 day(s).
| Time | Temp. | Humidity | Pressure | Rain* | Wind** | Luminosity | Snow |
|---|---|---|---|---|---|---|---|
| 1778173485 | 11.67° C | 52% | 1011.4 hPa | 0 mm | - | - | - |
| 1778173184 | 11.67° C | 48% | 1011.7 hPa | 0 mm | - | - | - |
| 1778172884 | 11.67° C | 48% | 1011.7 hPa | 0 mm | - | - | - |
| 1778172585 | 12.22° C | 51% | 1011.7 hPa | 0 mm | - | - | - |
| 1778172284 | 11.67° C | 48% | 1011.7 hPa | 0.25 mm | - | - | - |
| 1778172014 | 12.22° C | 49% | 1011.8 hPa | 0.25 mm | - | - | - |
| 1778171986 | 12.22° C | 48% | 1011.8 hPa | 0.25 mm | - | - | - |
| 1778171684 | 12.22° C | 49% | 1011.8 hPa | 0.25 mm | - | - | - |
| 1778171386 | 11.67° C | 49% | 1011.8 hPa | 0.25 mm | - | - | - |
| 1778171086 | 11.67° C | 46% | 1011.9 hPa | 0.25 mm | - | - | - |
| 1778170785 | 11.67° C | 52% | 1011.8 hPa | 0.25 mm | - | - | - |
| 1778170186 | 11.11° C | 53% | 1012 hPa | 0.25 mm | - | - | - |
| 1778169884 | 11.11° C | 54% | 1012 hPa | 0.25 mm | - | - | - |
| 1778169584 | 11.67° C | 52% | 1012.1 hPa | 0.25 mm | - | - | - |
| 1778169284 | 11.67° C | 54% | 1012.1 hPa | 0.25 mm | - | - | - |
| 1778168987 | 11.11° C | 53% | 1012.1 hPa | 0.25 mm | - | - | - |
| 1778168684 | 11.11° C | 51% | 1012.1 hPa | 0 mm | - | - | - |
| 1778168385 | 11.67° C | 50% | 1012.1 hPa | 0 mm | - | - | - |
| 1778168085 | 11.67° C | 54% | 1012.2 hPa | 0 mm | - | - | - |
| 1778167785 | 11.11° C | 55% | 1012.2 hPa | 0 mm | - | - | - |
| 1778167484 | 11.11° C | 52% | 1012.4 hPa | 0 mm | - | - | - |
| 1778167185 | 11.11° C | 54% | 1012.4 hPa | 0 mm | - | - | - |
| 1778166884 | 10.56° C | 55% | 1012.5 hPa | 0 mm | - | - | - |
| 1778166586 | 10.56° C | 54% | 1012.6 hPa | 0 mm | - | - | - |
| 1778166285 | 10.56° C | 54% | 1012.7 hPa | 0 mm | - | - | - |
* Rain latest hour (hover to see other rain measurements)
** Current wind speed in m/s (hover to see current wind gust speed)